Meteo pe oră la Dzialy

Astăzi, 26 Februarie, Vineri

Timp Temperatura Precipitaţii Vânt Presiune Umiditate
00:00 +5°C° 0 mm 4 m/s 755 mmHg 87%
01:00 +5°C° 0 mm 4 m/s 755 mmHg 87%
02:00 +4°C° 0 mm 4 m/s 755 mmHg 88%
03:00 +4°C° 0 mm 4 m/s 755 mmHg 89%
04:00 +4°C° 0 mm 4 m/s 754 mmHg 90%
05:00 +3°C° 0 mm 4 m/s 754 mmHg 91%
06:00 +3°C° 0 mm 3 m/s 754 mmHg 93%
07:00 +3°C° 0 mm 3 m/s 754 mmHg 94%
08:00 +3°C° 0 mm 3 m/s 754 mmHg 95%
09:00 +4°C° 0 mm 3 m/s 754 mmHg 93%
10:00 +6°C° 0 mm 4 m/s 754 mmHg 90%
11:00 +7°C° 0 mm 4 m/s 754 mmHg 88%
12:00 +8°C° 0 mm 4 m/s 754 mmHg 83%
13:00 +10°C° 0 mm 4 m/s 753 mmHg 79%
14:00 +10°C° 0 mm 4 m/s 753 mmHg 75%
15:00 +8°C° 0.5 mm 5 m/s 753 mmHg 79%
16:00 +6°C° 0.5 mm 5 m/s 753 mmHg 83%
17:00 +3°C° 0.5 mm 5 m/s 752 mmHg 88%
18:00 +3°C° 0.2 mm 5 m/s 752 mmHg 86%
19:00 +3°C° 0.2 mm 5 m/s 752 mmHg 84%
20:00 +3°C° 0.2 mm 5 m/s 752 mmHg 83%
21:00 +3°C° 0 mm 5 m/s 752 mmHg 83%
22:00 +2°C° 0 mm 5 m/s 752 mmHg 83%
23:00 +2°C° 0 mm 5 m/s 752 mmHg 83%

Mâine, 27 Februarie, Sâmbătă

Timp Temperatura Precipitaţii Vânt Presiune Umiditate
00:00 +2°C° 0 mm 5 m/s 753 mmHg 84%
01:00 +2°C° 0 mm 5 m/s 753 mmHg 85%
02:00 +2°C° 0 mm 5 m/s 753 mmHg 86%
03:00 +2°C° 0 mm 5 m/s 753 mmHg 84%
04:00 +2°C° 0 mm 6 m/s 752 mmHg 82%
05:00 +2°C° 0 mm 6 m/s 752 mmHg 80%
06:00 +2°C° 0 mm 6 m/s 752 mmHg 82%
07:00 +2°C° 0 mm 7 m/s 752 mmHg 85%
08:00 +2°C° 0 mm 7 m/s 752 mmHg 87%
09:00 +2°C° 0 mm 7 m/s 753 mmHg 83%
10:00 +2°C° 0 mm 7 m/s 753 mmHg 78%
11:00 +2°C° 0 mm 8 m/s 753 mmHg 74%
12:00 +2°C° 0 mm 8 m/s 753 mmHg 69%
13:00 +4°C° 0 mm 8 m/s 753 mmHg 65%
14:00 +5°C° 0 mm 8 m/s 754 mmHg 60%
15:00 +5°C° 0 mm 8 m/s 754 mmHg 61%
16:00 +4°C° 0 mm 7 m/s 754 mmHg 61%
17:00 +4°C° 0 mm 7 m/s 754 mmHg 61%
18:00 +3°C° 0 mm 7 m/s 755 mmHg 65%
19:00 +2°C° 0 mm 6 m/s 755 mmHg 69%
20:00 +1°C° 0 mm 6 m/s 755 mmHg 73%
21:00 +1°C° 0 mm 5 m/s 756 mmHg 75%
22:00 0°C° 0 mm 5 m/s 756 mmHg 78%
23:00 -1°C° 0 mm 5 m/s 757 mmHg 80%

Poimâine, 28 Februarie, Duminică

Timp Temperatura Precipitaţii Vânt Presiune Umiditate
00:00 -1°C° 0 mm 5 m/s 757 mmHg 82%
01:00 -2°C° 0 mm 5 m/s 757 mmHg 85%
02:00 -2°C° 0 mm 5 m/s 758 mmHg 87%
03:00 -2°C° 0 mm 4 m/s 758 mmHg 87%
04:00 -3°C° 0 mm 4 m/s 758 mmHg 88%
05:00 -3°C° 0 mm 4 m/s 758 mmHg 88%
06:00 -3°C° 0 mm 4 m/s 758 mmHg 88%
07:00 -3°C° 0 mm 4 m/s 759 mmHg 87%
08:00 -3°C° 0 mm 4 m/s 759 mmHg 87%
09:00 -2°C° 0 mm 4 m/s 759 mmHg 82%
10:00 -1°C° 0 mm 4 m/s 759 mmHg 77%
11:00 0°C° 0 mm 4 m/s 759 mmHg 72%
12:00 +1°C° 0 mm 4 m/s 759 mmHg 67%
13:00 +2°C° 0 mm 5 m/s 759 mmHg 62%
14:00 +3°C° 0 mm 5 m/s 759 mmHg 57%
15:00 +3°C° 0 mm 5 m/s 759 mmHg 60%
16:00 +4°C° 0 mm 4 m/s 758 mmHg 64%
17:00 +4°C° 0 mm 4 m/s 758 mmHg 67%
18:00 +3°C° 0 mm 4 m/s 758 mmHg 71%
19:00 +3°C° 0 mm 4 m/s 759 mmHg 75%
20:00 +1°C° 0 mm 4 m/s 759 mmHg 79%
21:00 +1°C° 0 mm 4 m/s 759 mmHg 79%
22:00 +1°C° 0 mm 5 m/s 759 mmHg 80%
23:00 +1°C° 0 mm 5 m/s 759 mmHg 81%

1 Martie, Luni

Timp Temperatura Precipitaţii Vânt Presiune Umiditate
00:00 +1°C° 0 mm 4 m/s 759 mmHg 84%
01:00 0°C° 0 mm 4 m/s 759 mmHg 88%
02:00 0°C° 0 mm 4 m/s 760 mmHg 91%
03:00 +1°C° 0 mm 3 m/s 760 mmHg 92%
04:00 +1°C° 0 mm 3 m/s 760 mmHg 94%
05:00 +1°C° 0 mm 3 m/s 760 mmHg 95%
06:00 +2°C° 0 mm 2 m/s 760 mmHg 95%
07:00 +1°C° 0 mm 2 m/s 761 mmHg 96%
08:00 +1°C° 0 mm 2 m/s 761 mmHg 96%
09:00 +2°C° 0 mm 2 m/s 761 mmHg 92%
10:00 +3°C° 0 mm 2 m/s 762 mmHg 87%
11:00 +4°C° 0 mm 2 m/s 762 mmHg 83%
12:00 +4°C° 0 mm 3 m/s 762 mmHg 79%
13:00 +5°C° 0 mm 3 m/s 762 mmHg 75%
14:00 +7°C° 0 mm 3 m/s 762 mmHg 71%
15:00 +7°C° 0 mm 3 m/s 762 mmHg 71%
16:00 +7°C° 0 mm 3 m/s 762 mmHg 70%
17:00 +7°C° 0 mm 3 m/s 762 mmHg 70%
18:00 +5°C° 0 mm 3 m/s 762 mmHg 75%
19:00 +4°C° 0 mm 3 m/s 762 mmHg 80%
20:00 +4°C° 0 mm 2 m/s 762 mmHg 85%
21:00 +3°C° 0 mm 3 m/s 763 mmHg 86%
22:00 +3°C° 0 mm 3 m/s 763 mmHg 88%
23:00 +2°C° 0 mm 3 m/s 763 mmHg 90%

2 Martie, Marţi

Timp Temperatura Precipitaţii Vânt Presiune Umiditate
00:00 +2°C° 0 mm 3 m/s 763 mmHg 90%
01:00 +1°C° 0 mm 3 m/s 763 mmHg 90%
02:00 +1°C° 0 mm 3 m/s 763 mmHg 91%
03:00 +1°C° 0 mm 3 m/s 762 mmHg 91%
04:00 +1°C° 0 mm 3 m/s 762 mmHg 91%
05:00 0°C° 0 mm 3 m/s 762 mmHg 91%
06:00 0°C° 0 mm 3 m/s 762 mmHg 91%
07:00 0°C° 0 mm 3 m/s 762 mmHg 91%
08:00 +1°C° 0 mm 3 m/s 762 mmHg 91%
09:00 +1°C° 0 mm 4 m/s 762 mmHg 85%
10:00 +3°C° 0 mm 4 m/s 762 mmHg 80%
11:00 +4°C° 0 mm 4 m/s 762 mmHg 74%
12:00 +6°C° 0 mm 4 m/s 762 mmHg 70%
13:00 +7°C° 0 mm 5 m/s 762 mmHg 66%
14:00 +8°C° 0 mm 5 m/s 762 mmHg 61%
15:00 +8°C° 0 mm 5 m/s 761 mmHg 62%
16:00 +8°C° 0 mm 4 m/s 761 mmHg 63%
17:00 +8°C° 0 mm 4 m/s 761 mmHg 64%
18:00 +7°C° 0 mm 4 m/s 761 mmHg 69%
19:00 +5°C° 0 mm 4 m/s 760 mmHg 75%
20:00 +4°C° 0 mm 3 m/s 760 mmHg 80%
21:00 +4°C° 0 mm 3 m/s 760 mmHg 82%
22:00 +3°C° 0 mm 3 m/s 760 mmHg 84%
23:00 +3°C° 0 mm 3 m/s 760 mmHg 87%

3 Martie, Miercuri

Timp Temperatura Precipitaţii Vânt Presiune Umiditate
00:00 +2°C° 0 mm 3 m/s 760 mmHg 87%
01:00 +2°C° 0 mm 3 m/s 760 mmHg 87%
02:00 +2°C° 0 mm 3 m/s 760 mmHg 88%
03:00 +1°C° 0 mm 3 m/s 759 mmHg 88%
04:00 +1°C° 0 mm 3 m/s 759 mmHg 87%
05:00 +1°C° 0 mm 3 m/s 759 mmHg 87%
06:00 0°C° 0 mm 3 m/s 759 mmHg 87%
07:00 0°C° 0 mm 3 m/s 758 mmHg 86%
08:00 0°C° 0 mm 3 m/s 758 mmHg 86%
09:00 +2°C° 0 mm 3 m/s 758 mmHg 80%
10:00 +4°C° 0 mm 3 m/s 758 mmHg 74%
11:00 +5°C° 0 mm 4 m/s 758 mmHg 68%
12:00 +6°C° 0 mm 4 m/s 758 mmHg 64%
13:00 +8°C° 0 mm 4 m/s 757 mmHg 60%
14:00 +9°C° 0 mm 5 m/s 757 mmHg 56%
15:00 +10°C° 0 mm 4 m/s 756 mmHg 57%
16:00 +10°C° 0 mm 4 m/s 756 mmHg 58%
17:00 +8°C° 0 mm 4 m/s 756 mmHg 59%
18:00 +7°C° 0 mm 4 m/s 755 mmHg 65%
19:00 +6°C° 0 mm 4 m/s 755 mmHg 70%
20:00 +5°C° 0 mm 3 m/s 755 mmHg 76%
21:00 +4°C° 0 mm 3 m/s 755 mmHg 79%
22:00 +4°C° 0 mm 3 m/s 755 mmHg 82%
23:00 +3°C° 0 mm 3 m/s 755 mmHg 84%
Arată mai mult

Formular de consimțământ

Meteoprog și furnizorii noștri de servicii pot stoca și accesa date personale, precum cookies, identificatori de dispozitiv sau alte tehnologii similare pe dispozitivul dumneavoastră și procesa astfel de date pentru a personaliza conținutul și reclamele, dar și pentru a oferi caracteristici de social media și pentru a analiza traficul.

  • Stocarea și/sau accesarea informațiilor pe dispozitivul dumneavoastră

    Cookies, identificatori de dispozitiv sau alte informații pot fi stocate sau accesate pe dispozitiv în scopurile indicate mai sus.

  • Reclame și conținut personalizat, evaluarea reclamelor și a conținutului, informații despre audiențe și dezvoltarea produselor

    Reclamele și conținutul pot fi personalizate pe baza unui profil. Pot fi adăugate date suplimentare pentru a personaliza mai bine reclamele și conținutul. Performanța reclamelor și conținutului poate fi măsurată. Pot fi obținute informații despre utilizatorii care au văzut reclamele și conținutul. Aceste date pot fi utilizate pentru a dezvolta sau îmbunătăți experiența utilizatorilor, sistemele și software-ul.

Dând clic pe ‘Sunt de acord’, permiteți utilizarea cookie-urilor menționate, a identificatorilor de dispozitiv, balizelor web sau altor tehnologii similare. Setările pot fi modificate din browser-ul dispozitivului dumneavoastră.

În anumite scopuri, interesele legitime pot prima asupra consimțământului. Puteți citi mai multe informații în acest sens în Politica privind Confidențialitatea Datelor și Cookie.